Location: Burzi?i
(45.0869°N, 16.0577°E)
Time: 10:44:18
(UTC+00:00)

AQUARIUS - Pass Details

Date: 29 October 2020
Orbit: 650 x 653 km, 98.0° (Epoch: 27 November)

Event Time Altitude Azimuth Distance (km) Brightness Sun altitude
Rises 16:30:17 0° 170° (S) 2,961 7.6 -8.1°
Reaches altitude 10° 16:32:30 10° 172° (S) 2,054 6.8 -8.5°
Maximum altitude 16:36:58 73° 258° (WSW) 687 4.5 -9.3°
Drops below altitude 10° 16:41:29 10° 343° (NNW) 2,070 6.8 -10.1°
Sets 16:43:43 0° 345° (NNW) 2,986 7.6 -10.4°
